Regional Weather Roundup
Issued by NWS

Home | Current Version | Previous Version | Text Only | Print | Product List | Glossary Off
Versions: 1 2 3 4 5 6 7 8 9 10 11 12 13 14 15 16 17 18 19 20 21 22 23 24 25 26 27 28 29 30 31 32 33 34 35 36 37 38 39 40 41 42 43 44 45 46 47 48 49 50

000
ASUS43 KDTX 301610
RWRMI
MICHIGAN HOURLY REGIONAL WEATHER ROUNDUP
NATIONAL WEATHER SERVICE DETROIT/PONTIAC MI
1200 PM EDT SUN AUG 30 2015

NOTE: "FAIR" INDICATES FEW OR NO CLOUDS BELOW 12,000 FEET WITH NO
SIGNIFICANT WEATHER AND/OR OBSTRUCTION TO VISIBILITY.

MIZ047>049-052>055-059>063-066>070-074>076-081>083-301700-
SOUTHEAST LOWER MICHIGAN

CITY           SKY/WX    TMP DP  RH WIND       PRES   REMARKS
ADRIAN         CLOUDY    75  68  78 SW6       30.09S
ALMA           CLOUDY    69  66  92 CALM      30.08F FOG
ANN ARBOR      CLOUDY    75  68  78 S5        30.08S
BAD AXE        CLOUDY    71  65  80 CALM      30.09F
DETROIT CITY   PTSUNNY   77  67  71 S7        30.08F
DETROIT        PTSUNNY   77  67  71 SE7       30.09S
FLINT          PTSUNNY   76  67  73 SW8       30.08S
GROSSE ILE     PTSUNNY   75  70  83 SE5       30.08S
HILLSDALE      PTSUNNY   75  71  86 SW5       30.09S
HOWELL         PTSUNNY   74  69  85 S7        30.08F

CITY           SKY/WX    TMP DP  RH WIND       PRES   REMARKS
JACKSON        PTSUNNY   74  68  81 VRB5      30.08F
LAMBERTVILLE   PTSUNNY   78  70  76 CALM      30.09S
LANSING        CLOUDY    72  68  87 S5        30.08F FOG
LAPEER         NOT AVBL
MASON          CLOUDY    72  66  80 S3        30.08S HAZE
MONROE         CLOUDY    75  69  79 SE5       30.08S
MT. CLEMENS    PTSUNNY   76  70  82 CALM      30.07S
PONTIAC        CLOUDY    72  66  81 S7        30.08S
PORT HOPE        N/A     70  67  90 E8        30.07F
PORT HURON     CLOUDY    73  68  83 CALM      30.09S
TRI CITIES     CLOUDY    74  66  76 CALM      30.08S
YPSILANTI      CLOUDY    80  69  69 S9        30.09S
$$
MIZ043>046-050>051-056>058-064>065-071>073-077>080-301700-
SOUTHWEST LOWER MICHIGAN

CITY           SKY/WX    TMP DP  RH WIND       PRES   REMARKS
BATTLE CREEK   CLOUDY    72  67  84 CALM      30.09S
BENTON HARBOR  MOSUNNY   74  65  73 W8        30.07S
BIG RAPIDS     CLOUDY    70  65  84 SE3       30.08S
COLDWATER      CLOUDY    74  69  83 W5        30.09R
HOLLAND        PTSUNNY   74  67  78 W5        30.07S
GRAND RAPIDS   CLOUDY    73  69  87 CALM      30.07S FOG
KALAMAZOO      CLOUDY    71  67  87 W3        30.09R FOG
MARSHALL       CLOUDY    72  68  87 CALM      30.08S
MUSKEGON       CLOUDY    71  65  81 CALM      30.07S HAZE
$$
MIZ016>042-301700-
NORTHERN LOWER MICHIGAN

CITY           SKY/WX    TMP DP  RH WIND       PRES   REMARKS
ALPENA         MOSUNNY   74  61  63 S8        30.07F
BEAVER ISLAND  SUNNY     70  61  71 SW12      30.06S
BELLAIRE       MOSUNNY   67  66  95 N3        30.08S
CADILLAC       MOSUNNY   71  63  75 CALM      30.08F
CHARLEVOIX     MOSUNNY   69  63  80 SE6       30.09F
FRANKFORT      CLOUDY    69  63  82 W6        30.08S
GAYLORD        SUNNY     71  59  65 S7        30.09R
GRAYLING       PTSUNNY   71  60  67 S6        30.09F
HARBOR SPRINGS PTSUNNY   66  62  86 W6        30.07F
HOUGHTON LAKE  CLOUDY    69  61  75 CALM      30.09F
MANISTEE       CLOUDY    66  61  82 CALM      30.09S
OSCODA         CLOUDY    71  64  79 NE5       30.08S
PELLSTON       MOSUNNY   73  61  65 S7        30.06F
TRAVERSE CITY  PTSUNNY   72  62  71 NE3       30.06F
$$
MIZ007>008-015-301700-
EASTERN UPPER MICHIGAN

CITY           SKY/WX    TMP DP  RH WIND       PRES   REMARKS
KINROSS        PTSUNNY   70  64  83 S8        30.05S
MACKINAC ISLAN SUNNY     67  63  85 SW5       30.06S
NEWBERRY       SUNNY     73  63  70 SW13      30.03S
S. S. MARIE    MOSUNNY   70  62  76 S10       30.04S
$$
MIZ004>006-011>014-085-301700-
CENTRAL UPPER MICHIGAN

CITY           SKY/WX    TMP DP  RH WIND       PRES   REMARKS
MANISTIQUE     SUNNY     68  63  83 S12       30.04S
ESCANABA       SUNNY     66  61  82 S13       30.03S
MENOMINEE      PTSUNNY   68  61  77 SW9       30.05S
SAWYER-GWINN   SUNNY     72  61  68 SW12      30.02S
$$
MIZ001>003-009>011-084-301700-
WESTERN UPPER MICHIGAN

CITY           SKY/WX    TMP DP  RH WIND       PRES   REMARKS
IRON MOUNTAIN  SUNNY     72  61  68 S9        30.03R
HOUGHTON       SUNNY     72  61  68 SW9       29.94F
IRONWOOD       SUNNY     72  63  73 S12       29.95S
$$

ABBREVIATIONS USED IN REMARKS
   TC - TEMPERATURE IN CELSIUS
  WCI - WIND CHILL INDEX
   HX - HEAT INDEX
  VSB - VISIBILITY




USA.gov is the U.S. government's official web portal to all federal, state and local government web resources and services.